天目一号 16星 (TIANMU-1 16)

导读 | 豆包AI

TIANMU-1 16是中国发射的天目一号系列卫星,于北京时间2024年1月5日8时成功发射。作为天目一号星座的组成部分,该卫星主要承担空间环境探测、气象监测等相关任务,服务于航天环境保障、气象科学研究等领域,进一步完善了我国相关空间观测体系的建设。

基本信息
目录编号:
58701
目录名称:
TIANMU-1 16
国际标识:
2024-004B
轨道中心:
EARTH
卫星名称:
天目一号 16星
卫星全名:
天目一号 16星 (TIANMU-1 16)
卫星状态:
在轨 (已飞行856 天)
发射日期:
2024-01-05 UTC
国别 :
中国 (CN)
星等 :
--
轨道信息
数据来源 国际轨道数据
星历时间: 2026-05-09T21:04:02+0800
19小时前
查看轨道信息
半长轴: 6864.603km
偏心率: 0.0007105
轨道倾角: 97.463°
近地点辐角 122.976°
升交点赤经 315.019°
平近点角 237.217°
近地点: 481.588km
远地点: 491.344km
周期: 94.337分钟
每日圈数: 15.264397
详细信息
覆盖范围:
全球
运营商:
中国航天科工集团有限公司
运营商所在国:
中国
制造商(研发单位):
中国航天科工集团有限公司
制造商所在国:
中国
使用方式:
暂无
卫星简介
天目一号气象星座,是由中国航天科工集团落户西部(重庆)科学城西永微电园企业研制,主要用于获取全球大气环境要素信息,建成后可实现全球全天候海洋、大气层、电离层的立体化、一体化探测。该卫星仍在工作。
2D轨道图
3D轨道图
轨道高度分析图
轨道倾角分析图
轨道综合分析图
查看轨道综合分析图